{"data":{"norad_id":66259,"epoch":"2026-05-24T16:36:25.597152Z","epoch_age_seconds":112101,"freshness":"FRESH","line1":"1 66259U 25245AB  26144.69196293  .00019116  00000+0  65591-3 0  9994","line2":"2 66259  53.1574 290.8038 0000912  86.2559 273.8546 15.30198399 32897","mean_motion":15.30198399,"eccentricity":9.12e-5,"inclination_deg":53.1574,"raan_deg":290.8038,"arg_perigee_deg":86.2559,"mean_anomaly_deg":273.8546,"bstar":0.00065591,"rev_number":3289,"period_min":94.105444166002,"perigee_km":474.59482357622,"apogee_km":475.8448758656,"semimajor_km":6853.3568497209,"source":"CELESTRAK","updated_at":"2026-05-25T13:38:21.139069Z"}}